Погода Одесское

Погода Одесское : погода сейчас, прогноз погоды и архив. Всё, что Вы хотите узнать о погоде Одесское!

Хотите узнать прогноз погоды Одесское? Тогда Вам сюда: Погода Одесское

Поиск расширенной информации на нашем сайте:

Другие новости

Новости СМИ2

Главная страница сайта

Новости сайта

03.07.2017

Напоминаем, что на нашем специализированном сайте Метеоцентр.Азия вы можете получить высокодетализированные автоматические прогнозы погоды по пунктам России, СНГ и мира в авиационном формате (включающие направление и скорость ветра, видимость, явления погоды, количество и форму облачности, нижнюю и верхнюю границу облачности).


Погода Одесское - сегодня

Время (UTC), дата Ветер
(°,м/с) 
Видим.   Явления Облачность Т
(°С)
Тd
(°С)
f(%) Тe
(°С)
Pmin
(гПа)
dP
(гПа)
Po
(мм)
O2
(г/м3)
Тmin Tmax R s Состояние
почвы
06 16.10.17 290 (З) 10 км    10/10 240 м 
[St]
+4.6 +4.6 100 +3  1018.4  1.4  752  297           
09 16.10.17 350 (С) 10 км    3/0 средняя, верхняя 
[Ac trans|Ci fib]
+7.8 +4.9 82 +8  1018.8  0.6  753  294           
12 16.10.17 070 (В) 10 км    1/0 верхняя 
[Ci fib]
+6.6 +4.6 87 +8  1020.1  1.2  754  296           
15 16.10.17 120 (ЮВ) 10 км    ясно 
+1.2 +1.2 100 +2  1021.9  1.4  755  303    +8.2       
18 16.10.17 120 (ЮВ) 0200 м  туман  ясно 
-1.2 -1.2 100 -1  1022.5  0.5  755  306           
21 16.10.17 110 (В) 0200 м  переохл. туман [диам. изморози 0.1 мм]  ясно 
-2.6 -2.6 100 -2  1022.6  0.1  755  307           
00 17.10.17 090 (В) 0500 м  переохл. туман [диам. изморози 1 мм]  ?/?  
-1.9 -1.9 100 -3  1022.5  0.1  755  307           
03 17.10.17 120 (ЮВ) 0200 м  туман [диам. изморози 0 мм]  ?/?  
+0.9 +0.9 100 1022.5  0.1  755  303  -2.8    0.3     
06 17.10.17 090 (В) 1000 м  в посл. час туман  10/10 120 м 
[St]
+3.2 +3.2 100 +2  1021.6  -0.7  755  300           
09 17.10.17 110 (В) 10 км    10/10 300 м 
[Sc]
+5.3 +3.4 88 +4  1020.2  -1.3  754  297           
12 17.10.17 080 (В) 10 км    10/10 360 м 
[St]
+4.5 +2.3 86 +3  1019.2  -1  753  298           
15 17.10.17 080 (В) 10 км    3/3 300 м 
[St]
+3.3 +3.3 100 +2  1017.8  -1.5  752  299    +5.3       
18 17.10.17 080 (В) 0500 м  туман  ?/?  
+3.1 +3.1 100 +1  1015.1  -2.6  750  298           
21 17.10.17 090 (В) 10 км  {туман}  ясно 
+1.4 +1.4 100 1012.8  -2.4  748  300           
00 18.10.17 090 (В) 10 км  {туман}  ясно 
+1.3 +1.3 100 1010.6  -2.2  746  299           
03 18.10.17 100 (В) 10 км    1/0 верхняя 
[Ci fib]
+4.1 +3.4 95 +2  1009.5  -0.9  746  295  +1.2         
06 18.10.17 110 (В) 6-12{12}  10 км    8/3 300 м кучево-дожд., средняя, верхняя 
[Cb calv|Ac cast|Cc]
+9.3 +2.2 61 +8  1007.8  -1.3  745  290           
09 18.10.17 120 (ЮВ) 6-11{13}  10 км    8/0 средняя, верхняя 
[Ac cast|Cs]
+12.5 +3.3 53 +11  1005.8  -1.8  743  286           
12 18.10.17 130 (ЮВ) 3{14}  10 км    10/4 600 м кучево-дожд., средняя, верхняя 
[Cb calv|Ac trans|Ci sp]
+10.1 +4.1 66 +10  1006.3  0.4  744  288           
15 18.10.17 160 (Ю) 4000 м  слаб. ливневой дождь  10/10 600 м кучево-дожд. 
[Cb calv]
+8.3 +8.3 100 +8  1007  0.5  744  289    +12.6  0.6     
18 18.10.17 220 (ЮЗ) 4000 м  слаб. ливневой дождь  10/10 540 м кучево-дожд. 
[Cb calv]
+7.9 +7.3 96 +7  1008.2  1.2  745  290           
21 18.10.17 180 (Ю) 10 км  {ливн. осадки}  10/10 420 м кучево-дожд. 
[Cb calv]
+6.3 +4 85 +5  1008.2  0.1  745  293           
00 19.10.17 170 (Ю) 10 км  {ливн. осадки}  10/0 средняя, верхняя 
[Ac As|Ci fib]
+4.4 +2.7 89 +3  1008.4  0.1  745  295           
03 19.10.17 160 (Ю) 10 км    9/9 870 м 
[Sc]
+3.8 +3.8 100 +3  1008.3  0.1  745  295  +3.5       
06 19.10.17 160 (Ю) 10 км    8/3 600 м верхняя 
[Cu med, cong|Ci]
+9.1 +3.6 68 +8  1006.7  -1.3  744  289           
Время (UTC), дата Ветер
(°,м/с) 
Видим.   Явления Облачность Т
(°С)
Тd
(°С)
f(%) Тe
(°С)
Pmin
(гПа)
dP
(гПа)
Po
(мм)
O2
(г/м3)
Тmin Tmax R s Состояние
почвы

Для получения пояснительной информации подведите курсор к названию столбца.

ПОГОДА Одесское - архив

Всё, что Вы хотите узнать о погоде Одесское - удобно и подробно!

Выберите нужную дату (начиная с 1 января 2015* года) и нажмите кнопку "Найти".
Будут отображены архивные сводки погоды по пункту Одесское, начиная с указанной даты.


Отображать данные в формате CSV (для использования в таблицах Excel)


Внимание! Наш архив погоды предназначен исключительно для личного некоммерческого использования в познавательных целях. Если Вам необходимы официальные справки о состоянии погоды (для производственных, юридических, коммерческих и т.п. целей), обращайтесь в органы Росгидромета.

*Примечание: данная дата относится к архиву по метеостанциям СССР (Россия, СНГ, Балтия).
Архив по метеостанциям Зарубежной Европы и Азии (кроме Китая) хранится 10 дней, по другим регионам земного шара (Китай, Африка, Америка, Австралия, Океания) - 1 день.

Одесское - район местоположения метеостанции


Название, широта, долгота, высота метеостанции:
Одесское 54.2°ш. 73°д. 125 м над ур. моря [Российская Федерация]

Дополнительная информация

В oтличие oт бoльшинства пoгoдных сайтoв мы публикуем пoдрoбную метеoинфoрмацию в детальнoм прoфессиoнальнoм фoрмате.

Характеристики температуры и влажнoсти вoздуха измеряются на высoте 2 м в тени вдали oт зданий и деревьев.
Скoрoсть ветра измеряется на высoте 10 м (на урoвне рoста челoвека скoрoсть ветра ниже в 1.5-2 раза). Если метеoстанция нахoдится в гoрoде или в лесу, тo скoрoсть ветра занижена на 2-4 м/с пo сравнению с oткрытым местoм. Скoрoсть ветра над акватoриями крупных рек и oзёр, а также на вершинах хoлмoв на 2-5 м/с выше, чем в oбычных услoвиях.
Атмoсфернoе давление в разных тoчках местнoсти мoжет значительнo oтличаться oт давления на метеoстанции, в зависимoсти oт услoвий рельефа (при пoдъёме на 10 м давление пoнижается примернo на 1 мм рт.ст.).